Temperature
20 20 20 21 17 15 18 19 19 20 20 21 21 20 18 18 18 18 18 17 16 16 15 15 14 14 14 13 13 12 12 12 12 12 11 11 11 11 11 11 11 11 11 11 11 11 12 12 12
20 20 21 20 16 16 18 18 19 20 21 22 21 20 19 18 19 19 18 17 16 16 16 15 14 14 14 13 13 12 12 12 12 12 11 11 11 11 11 11 11 11 11 11 12 12 12 12 12
20 20 20 16 16 16 18 18 19 21 22 22 21 20 20 19 19 19 19 17 16 16 16 15 14 14 14 13 13 12 12 12 12 11 11 11 11 11 11 11 11 11 12 12 12 12 12 12 12
20 20 20 16 18 18 18 18 19 20 22 22 21 19 19 19 19 19 19 18 17 16 16 15 15 14 14 13 13 12 12 12 11 11 11 11 11 11 11 11 11 12 12 12 11 11 12 12 12
20 20 17 16 18 19 18 20 21 20 21 21 20 18 18 19 19 19 19 18 17 16 16 15 15 14 14 13 13 12 12 11 11 11 11 11 11 11 11 11 11 11 11 11 11 11 11 11 11
20 17 16 17 18 19 19 21 21 20 20 21 20 18 18 19 19 18 18 18 17 17 16 15 15 14 14 13 13 12 12 11 11 11 11 11 11 11 11 11 11 11 11 11 11 11 11 11 11
19 15 16 18 18 19 20 22 21 20 20 21 21 17 17 18 18 18 18 17 17 16 16 15 15 14 14 13 13 12 12 11 11 11 11 11 11 11 11 11 11 11 11 11 11 11 11 10 10
20 15 17 17 18 19 21 21 22 21 21 21 21 18 18 18 18 17 17 16 16 16 15 15 15 14 14 13 13 12 12 11 11 11 11 11 11 11 11 10 10 10 10 10 10 10 10 10 10
20 15 16 18 19 19 20 21 21 22 21 21 21 21 21 19 17 16 16 16 15 15 15 15 15 14 14 13 12 12 12 11 11 11 11 10 10 10 10 10 10 10 10 10 10 10 10 10 10
19 15 18 19 19 19 20 20 21 21 20 20 20 20 20 19 18 17 16 16 16 15 15 15 14 14 13 13 12 12 11 11 11 11 10 10 10 10 10 10 10 10 10 10 10 10 10 9 9
18 17 18 19 20 20 20 20 20 20 19 20 20 20 19 18 18 17 17 17 17 16 15 15 14 14 13 13 12 12 11 11 11 11 10 10 10 10 10 10 10 10 10 10 10 10 9 9 9
18 18 19 20 20 20 20 20 20 20 20 21 21 21 20 19 18 18 17 17 16 16 15 15 14 14 13 13 12 12 12 11 11 11 10 10 10 10 10 10 10 10 10 10 10 10 9 9 9
18 18 19 20 20 20 20 19 19 20 21 20 20 20 19 19 19 18 18 17 16 16 15 15 14 14 13 13 12 12 12 11 11 11 10 10 10 10 10 10 9 9 9 9 10 10 9 9 10
18 18 19 19 19 19 19 18 18 20 20 20 20 20 19 19 19 18 17 17 16 16 16 15 14 14 13 13 13 12 12 11 11 11 11 10 10 10 10 10 10 9 9 9 9 9 9 9 10
19 17 17 18 18 19 18 17 16 20 20 19 19 19 19 19 19 19 18 18 17 17 16 15 14 14 13 13 13 12 12 12 11 11 11 10 10 10 10 10 10 10 9 9 9 9 9 9 9
17 16 16 17 17 18 18 16 16 20 20 19 19 19 19 19 19 19 19 18 17 17 16 15 14 14 13 13 13 12 12 12 11 11 11 10 10 10 10 10 10 9 9 9 9 9 9 9 9
15 15 16 16 17 16 16 15 16 20 19 19 19 19 19 19 19 19 19 18 18 17 16 15 15 14 13 13 12 12 12 12 11 11 11 10 10 10 10 10 10 9 9 9 9 9 9 9 9
15 15 16 16 17 16 15 15 15 18 18 18 19 19 19 19 20 19 19 18 18 17 16 16 15 14 14 13 12 12 12 11 11 11 11 10 10 10 10 10 10 9 9 9 9 9 9 9 9
15 16 15 15 16 16 15 15 16 17 17 16 17 18 19 19 20 19 19 18 18 17 16 16 15 14 13 13 12 12 12 11 11 11 11 11 10 10 10 10 10 9 9 9 9 9 9 9 9
15 15 15 15 16 16 14 14 15 15 16 17 18 18 19 19 19 19 19 18 18 17 16 16 15 14 14 13 13 12 12 12 11 11 11 10 10 10 10 10 10 9 9 9 9 9 9 9 8
15 15 15 15 15 15 14 14 15 16 17 18 18 19 19 19 19 19 19 18 18 17 17 16 15 15 14 13 13 12 11 11 11 11 11 11 10 10 10 10 10 9 9 9 9 9 9 8 8
14 15 15 15 14 13 14 13 14 14 15 16 17 18 19 19 19 19 19 18 18 17 17 16 15 15 14 13 12 12 12 11 11 11 11 11 10 10 10 10 9 9 9 9 9 9 8 8 8
15 16 15 15 14 13 12 13 13 14 16 16 16 18 19 19 19 19 19 18 18 17 17 16 15 14 14 13 13 12 12 12 11 11 11 10 10 10 10 10 9 9 9 9 9 9 8 8 8
15 15 13 12 11 12 12 12 13 13 16 16 16 18 19 19 19 19 18 18 17 17 16 16 15 14 14 13 13 12 12 12 11 11 11 10 10 10 10 9 9 9 9 9 9 8 8 8 7
14 13 12 12 11 12 13 12 13 14 15 16 16 18 19 19 19 19 18 18 17 17 16 15 15 14 14 13 13 12 12 11 11 11 11 10 10 10 10 9 9 9 9 8 8 8 8 7 7
13 13 12 12 12 12 13 13 14 15 16 17 18 18 18 18 18 19 18 18 18 17 16 15 15 14 14 13 13 12 12 11 11 11 10 10 10 10 10 9 9 9 8 8 8 8 7 7 7
13 12 12 12 12 12 12 12 13 15 15 15 16 17 18 18 18 18 18 18 18 17 16 16 15 14 14 13 13 12 12 11 11 10 10 10 10 9 9 9 9 9 8 8 8 7 7 7 6
13 12 11 12 12 11 12 12 14 15 15 15 14 16 18 18 18 18 18 18 17 17 16 16 15 14 14 13 13 12 11 11 10 10 10 9 9 9 9 9 8 8 8 7 7 7 6 6 6
12 13 12 11 10 11 11 12 14 14 14 14 15 17 18 18 18 18 18 18 17 16 16 15 15 14 14 13 12 12 11 11 10 10 9 9 9 9 8 8 8 8 7 7 7 6 6 6 5
12 12 11 11 11 10 10 12 14 13 14 15 16 17 18 18 18 18 18 17 17 16 16 15 15 14 14 13 12 12 11 10 10 9 9 9 8 8 8 8 8 7 7 7 6 6 6 5 5
Wind_Speed
9 7 3 4 6 5 1 2 4 3 3 1 5 10 9 6 4 3 3 12 13 15 18 19 18 17 16 15 15 14 14 13 13 12 12 11 11 12 12 12 12 13 13 13 13 13 13 13 13
5 3 5 5 5 2 2 2 5 5 5 5 6 7 7 3 3 7 6 12 18 19 19 18 19 18 17 16 15 15 14 13 13 12 12 11 11 11 11 11 12 12 12 12 12 12 12 12 12
3 2 4 4 3 5 4 5 7 4 4 5 5 5 6 6 6 9 9 17 17 17 19 19 20 19 17 17 16 15 14 13 13 12 11 11 11 11 11 11 11 11 10 11 11 11 11 11 10
4 5 5 4 1 4 8 8 6 5 2 4 6 5 2 2 7 8 15 17 15 13 19 21 21 20 18 17 16 15 14 13 12 12 11 11 10 10 10 10 9 9 9 9 9 9 9 9 9
4 5 4 2 2 2 5 6 6 6 4 3 6 6 1 5 4 13 18 17 17 13 19 21 22 20 19 17 16 15 14 14 12 12 11 10 9 9 8 8 8 7 7 7 8 8 8 8 7
4 5 3 1 3 3 4 4 5 4 2 3 6 7 2 0 9 13 15 16 16 16 18 20 22 21 19 18 17 15 15 14 13 11 10 10 9 8 7 7 6 6 5 6 6 6 6 6 6
4 4 2 3 3 3 4 3 7 6 3 4 8 7 2 3 8 11 12 13 13 17 17 17 19 20 19 18 17 16 15 14 13 12 10 9 8 8 7 6 5 4 4 4 4 4 5 5 6
5 4 1 1 2 3 3 2 5 7 4 3 7 10 7 9 8 8 10 11 11 12 13 15 17 18 18 18 18 17 16 14 13 12 10 9 8 7 6 6 5 3 2 2 2 3 4 5 6
4 4 1 2 2 2 2 1 0 3 5 2 3 7 7 11 10 11 9 8 10 11 10 12 14 16 17 17 17 17 16 15 13 12 11 9 8 7 6 5 5 3 2 1 2 3 4 5 6
4 3 3 2 2 2 1 1 2 2 2 1 2 2 5 11 13 13 13 14 14 14 13 10 13 15 16 16 16 15 15 14 13 12 12 10 9 8 6 6 5 3 1 1 2 3 5 6 6
3 5 4 3 2 2 0 2 1 4 4 7 7 8 9 10 12 13 14 15 16 16 15 13 13 16 16 13 14 13 13 13 13 13 12 11 9 7 6 5 4 3 1 1 3 4 5 5 5
2 3 3 4 3 3 3 2 3 5 9 8 9 13 13 13 14 15 15 13 13 14 15 15 14 14 15 15 13 13 12 12 12 13 13 11 7 6 6 5 4 3 3 2 3 4 5 5 5
2 3 3 4 5 4 4 5 5 8 9 6 6 11 15 15 14 14 13 12 12 15 16 15 14 14 15 13 12 13 12 13 14 13 13 13 9 6 6 5 5 4 4 2 2 2 3 4 5
4 4 5 6 6 4 5 5 3 10 6 4 7 12 14 16 16 12 11 12 13 15 16 15 16 15 15 12 10 11 14 14 14 13 14 14 12 9 7 5 4 4 4 3 2 1 1 2 3
1 3 7 6 5 4 2 7 8 11 4 6 9 11 13 14 13 14 14 14 15 15 15 15 16 15 15 13 13 13 14 15 13 13 15 15 13 11 9 5 4 4 4 3 1 1 2 2 3
2 1 4 6 3 4 4 10 11 9 5 9 10 11 11 13 13 14 14 13 13 13 14 15 15 15 15 12 12 12 14 14 13 14 14 15 14 13 10 5 4 5 4 3 1 1 1 2 2
2 2 4 7 3 3 6 10 11 7 7 10 11 11 11 11 12 13 14 14 14 15 15 15 14 16 15 12 11 11 12 12 13 14 13 14 14 14 11 7 6 6 4 2 1 1 1 1 3
4 4 4 5 4 3 7 13 14 9 9 11 11 10 10 11 14 12 13 13 13 14 15 15 14 14 13 10 8 7 7 8 11 12 13 15 14 14 11 7 6 6 3 2 1 1 0 1 2
5 4 6 7 4 4 10 14 17 11 8 10 10 10 10 12 11 9 10 11 11 12 13 14 14 14 12 9 9 8 8 7 7 9 14 15 15 14 11 7 6 5 4 4 3 2 1 0 1
5 5 6 6 5 4 8 13 12 9 7 8 9 10 10 9 6 7 9 10 12 13 14 14 15 15 14 12 9 7 6 5 6 7 11 14 15 14 12 9 6 6 4 4 4 3 2 1 1
7 7 7 6 7 5 6 10 8 6 4 5 5 6 7 8 9 8 9 11 11 13 15 15 15 14 14 12 7 5 4 3 4 6 7 9 14 14 13 11 8 6 6 5 5 4 5 3 1
9 7 6 4 2 5 2 6 9 7 7 6 6 6 7 7 7 8 9 10 12 13 12 13 14 13 13 12 11 11 9 8 9 6 7 8 12 13 13 12 10 8 5 6 6 5 4 4 3
8 5 4 3 2 5 3 4 9 5 6 8 8 8 7 7 7 9 10 12 11 11 11 11 12 12 12 13 14 13 10 8 6 6 8 8 7 10 12 12 10 7 6 6 6 5 5 4 4
5 4 4 3 2 5 7 6 8 6 8 7 7 7 7 6 6 6 7 7 7 8 9 10 11 12 12 13 13 14 13 10 9 8 9 8 6 6 8 10 9 8 7 7 7 6 7 5 5
6 5 1 2 1 7 5 6 10 9 9 9 9 9 7 7 6 6 7 8 9 9 10 10 12 12 12 13 13 14 13 13 13 11 11 9 7 6 9 8 7 7 7 8 7 6 6 6 6
9 10 8 6 6 5 3 8 9 8 6 6 6 6 6 7 7 8 9 10 10 11 11 11 12 12 12 13 13 12 11 10 10 11 10 11 9 9 9 9 9 9 9 8 7 5 6 6 6
9 9 8 6 2 4 6 8 9 3 3 5 6 6 7 8 9 9 8 9 9 10 11 12 12 11 11 12 11 10 11 11 10 10 9 8 8 7 9 9 9 8 8 8 7 6 7 6 6
8 9 6 6 6 6 7 7 6 7 8 8 8 9 9 8 8 8 8 8 9 9 9 9 10 11 10 11 11 10 10 11 10 9 10 9 9 8 9 9 9 8 8 7 7 6 6 6 7
8 8 6 7 5 6 5 8 8 10 10 11 11 10 10 10 9 8 7 7 7 6 7 8 9 9 9 9 9 9 9 9 9 9 10 9 8 9 9 9 9 9 8 8 8 8 7 8 7
9 10 10 8 7 7 5 9 7 9 10 10 10 10 8 8 7 7 6 5 5 6 6 7 8 8 9 8 8 8 8 8 8 9 8 8 9 9 9 9 9 9 8 8 9 9 8 8 9
Wind_Direction
337 340 75 59 54 51 33 275 166 136 93 94 100 100 108 117 146 167 163 149 146 151 159 156 153 148 143 139 133 128 123 118 112 107 102 96 93 90 88 84 82 78 75 72 70 69 68 66 64
341 5 60 59 81 78 300 242 137 145 154 131 93 97 99 111 147 133 131 154 150 152 155 156 154 150 146 143 138 133 129 124 119 113 107 102 99 96 93 88 85 81 77 74 71 69 68 65 62
340 54 75 71 113 171 182 207 161 164 150 116 85 79 128 160 163 165 165 151 148 151 154 156 156 153 150 147 143 139 135 130 125 119 113 108 104 101 97 92 87 82 78 74 71 68 65 62 58
51 44 55 72 178 212 177 197 173 134 108 93 107 89 110 183 180 172 149 148 147 151 155 159 158 155 152 151 148 145 141 138 132 126 120 115 110 105 100 95 90 84 79 75 73 68 62 56 53
61 69 55 26 242 218 190 186 161 138 150 119 114 118 97 334 138 141 148 152 153 155 159 162 161 159 157 154 151 151 147 145 141 136 130 125 119 113 109 103 96 89 82 77 73 65 58 52 48
54 66 83 240 233 227 225 179 135 133 151 129 115 126 180 349 138 150 154 156 157 158 162 165 165 163 161 159 158 157 154 151 148 145 141 136 133 129 124 116 108 96 86 79 70 59 49 42 38
101 96 185 217 212 219 227 166 131 133 148 177 137 129 190 210 178 157 154 152 155 159 162 165 167 166 165 166 165 163 160 158 156 154 151 148 146 143 140 134 127 111 94 77 64 49 36 29 21
124 105 11 275 213 231 238 147 145 143 171 167 129 148 193 208 183 142 139 148 155 161 164 163 164 165 166 168 169 168 166 166 165 162 161 160 159 154 153 153 150 138 118 76 42 24 14 6 356
95 81 313 272 204 246 293 95 15 155 130 103 123 182 202 162 146 133 133 147 160 168 171 166 164 166 167 168 171 172 172 173 171 169 169 166 164 163 162 172 177 169 151 67 14 1 354 349 341
96 146 229 240 194 191 348 67 212 119 119 124 36 17 125 144 154 160 164 169 174 178 180 174 171 169 168 172 174 174 174 175 172 171 172 170 171 177 181 182 183 176 174 325 337 339 345 345 337
150 189 221 239 213 173 293 315 272 164 222 211 197 183 158 164 172 178 181 180 182 181 180 181 178 175 173 174 173 175 174 174 175 177 178 177 177 181 180 181 195 203 233 301 327 340 340 339 331
185 237 218 223 216 178 207 259 289 215 225 222 199 176 172 179 187 191 190 187 182 179 185 182 181 179 179 176 177 177 175 176 179 184 183 175 173 174 173 175 185 195 212 251 297 316 329 332 331
225 263 269 244 225 217 224 237 251 255 251 248 196 173 184 190 197 200 195 188 180 184 187 184 181 180 180 176 179 180 180 181 185 186 186 180 174 177 179 185 186 198 210 225 262 311 334 339 342
223 250 278 264 244 239 234 263 256 259 253 218 189 193 200 200 201 200 197 193 189 188 187 184 183 181 179 180 181 181 183 184 185 186 186 184 181 180 177 183 188 201 204 206 205 269 348 346 348
244 307 309 276 233 240 207 286 243 248 249 223 219 215 213 213 207 203 201 198 195 190 186 183 184 181 180 181 182 182 183 182 182 186 186 185 183 180 178 176 182 199 197 185 167 37 30 10 360
30 0 290 286 221 197 170 263 261 256 232 237 234 231 227 224 216 213 207 201 195 187 184 185 184 182 182 181 181 181 181 180 182 183 183 184 183 180 174 173 186 192 182 168 147 101 39 356 340
11 253 258 290 239 188 201 252 266 262 236 244 243 236 231 233 231 222 211 202 194 189 185 184 181 182 183 179 177 178 178 179 182 182 183 185 184 182 176 180 190 184 166 157 157 119 142 300 316
222 225 251 262 272 212 240 259 273 269 238 243 246 241 235 231 231 222 211 201 193 189 185 183 181 181 178 175 170 171 176 182 182 184 186 186 185 184 181 181 185 173 157 166 159 155 130 230 292
198 215 253 257 263 252 254 268 277 276 256 250 247 244 240 238 238 220 205 193 185 184 183 183 183 182 176 176 178 179 187 189 189 191 190 188 187 187 183 179 179 174 176 184 175 158 160 283 353
216 245 265 285 297 271 277 279 278 272 251 241 240 240 239 241 238 216 200 189 187 187 188 186 187 184 184 185 184 181 176 185 191 192 193 192 189 188 188 183 182 177 176 177 176 162 156 201 86
225 223 236 264 320 337 328 306 294 289 277 267 251 242 237 227 223 211 198 194 190 191 191 190 189 187 186 179 165 148 139 146 182 199 200 198 193 192 190 189 184 181 178 187 191 180 170 192 217
233 224 214 235 326 296 354 298 288 283 290 274 272 263 252 243 222 209 199 196 197 199 193 191 188 187 184 176 176 175 184 194 200 194 196 197 198 195 193 191 189 187 185 190 196 187 179 170 202
212 199 195 208 210 287 268 231 280 288 264 260 256 255 253 241 217 208 204 202 202 196 190 191 187 188 185 184 186 189 197 199 185 182 190 198 201 199 196 192 190 190 191 194 192 186 187 184 188
164 91 53 61 98 266 232 200 273 244 228 239 244 247 243 232 214 210 204 195 197 190 187 186 187 193 189 189 190 194 197 191 183 190 196 201 203 204 201 195 193 194 193 197 199 196 194 198 197
134 117 12 300 268 248 223 210 250 244 233 220 222 231 227 218 205 204 195 197 199 194 192 189 190 197 195 194 197 200 200 196 198 198 201 201 203 208 209 199 196 197 200 199 194 195 202 198 200
180 163 177 205 222 267 259 229 252 256 242 228 221 216 213 214 215 215 210 205 204 202 198 194 196 201 198 200 204 203 200 201 206 203 203 205 209 211 203 200 202 202 200 199 194 199 206 204 209
165 193 179 152 205 251 263 274 297 263 232 228 226 217 221 224 223 223 221 214 209 206 204 200 201 204 203 203 203 203 203 203 206 204 205 208 210 206 200 201 203 203 201 199 194 207 212 208 215
167 161 140 164 191 235 270 260 242 234 227 230 226 225 230 230 229 228 225 220 217 213 210 204 204 206 206 203 204 207 206 207 206 202 207 208 208 203 198 202 205 206 205 203 200 210 213 212 223
163 175 171 171 181 184 242 260 227 217 212 211 221 225 226 226 226 225 225 222 216 210 204 205 207 208 207 205 205 206 206 205 203 207 210 208 205 201 202 203 205 207 208 205 206 214 213 220 231
180 182 164 177 212 197 208 261 255 230 222 212 221 233 234 228 226 225 221 215 209 208 206 206 207 208 209 204 201 206 205 200 203 210 209 203 203 202 203 201 204 209 210 206 209 218 219 223 232
Height
1529 1529 1530 1531 1534 1545 1546 1539 1534 1532 1531 1531 1531 1532 1535 1539 1543 1548 1545 1544 1546 1547 1549 1551 1552 1553 1554 1554 1554 1555 1555 1555 1555 1554 1554 1554 1553 1553 1552 1552 1551 1551 1550 1550 1549 1548 1548 1548 1547
1530 1530 1531 1531 1541 1554 1548 1538 1534 1530 1530 1531 1532 1533 1535 1538 1539 1541 1541 1543 1546 1547 1548 1550 1552 1553 1553 1554 1554 1555 1555 1555 1555 1555 1554 1554 1554 1553 1553 1552 1552 1551 1551 1550 1550 1549 1549 1549 1548
1530 1530 1531 1534 1544 1550 1544 1536 1532 1529 1529 1530 1532 1534 1536 1538 1538 1540 1541 1543 1545 1547 1548 1550 1551 1552 1553 1554 1554 1555 1555 1555 1555 1555 1555 1555 1554 1554 1554 1553 1553 1552 1552 1551 1551 1550 1550 1550 1549
1531 1532 1532 1539 1541 1537 1534 1532 1529 1529 1530 1530 1532 1536 1537 1538 1539 1540 1540 1542 1544 1546 1548 1549 1550 1552 1553 1554 1554 1555 1555 1555 1555 1555 1555 1555 1555 1555 1554 1554 1554 1553 1553 1552 1552 1551 1551 1551 1550
1531 1531 1537 1544 1538 1533 1529 1528 1528 1528 1529 1530 1531 1535 1536 1538 1538 1539 1540 1542 1544 1545 1547 1549 1550 1551 1552 1553 1554 1554 1555 1555 1555 1556 1556 1556 1556 1555 1555 1555 1555 1554 1554 1553 1553 1552 1552 1552 1551
1532 1533 1545 1547 1538 1532 1529 1527 1527 1528 1530 1531 1531 1534 1536 1537 1538 1539 1540 1542 1544 1545 1546 1548 1549 1551 1552 1553 1553 1554 1555 1555 1555 1556 1556 1556 1556 1556 1556 1556 1555 1555 1554 1554 1554 1553 1553 1552 1552
1533 1537 1542 1540 1538 1533 1528 1526 1526 1528 1529 1530 1531 1533 1535 1536 1538 1539 1540 1542 1543 1544 1546 1547 1548 1550 1551 1552 1553 1554 1554 1555 1555 1556 1556 1556 1556 1556 1556 1556 1556 1555 1555 1555 1554 1554 1553 1552 1552
1531 1536 1539 1540 1537 1532 1527 1526 1526 1526 1528 1530 1530 1531 1533 1535 1537 1538 1540 1541 1542 1544 1545 1546 1547 1549 1550 1551 1552 1553 1554 1555 1555 1556 1556 1556 1556 1556 1556 1556 1556 1556 1555 1555 1554 1554 1553 1552 1552
1531 1539 1542 1537 1534 1530 1526 1526 1526 1526 1527 1528 1529 1529 1530 1532 1535 1537 1538 1540 1541 1542 1543 1545 1546 1547 1549 1550 1551 1552 1553 1554 1555 1555 1556 1556 1556 1556 1556 1556 1556 1556 1555 1555 1554 1553 1553 1552 1551
1530 1540 1535 1530 1529 1528 1526 1526 1526 1526 1526 1527 1527 1528 1528 1530 1532 1533 1534 1535 1537 1539 1541 1543 1544 1546 1547 1549 1550 1551 1552 1553 1554 1554 1555 1555 1556 1556 1556 1556 1555 1555 1555 1554 1554 1553 1552 1551 1550
1529 1532 1529 1528 1527 1527 1526 1526 1525 1525 1525 1524 1525 1525 1526 1528 1530 1531 1531 1532 1534 1536 1538 1540 1542 1544 1545 1547 1548 1550 1551 1552 1553 1553 1554 1554 1555 1555 1555 1555 1555 1554 1554 1554 1553 1552 1551 1550 1549
1528 1527 1526 1526 1525 1525 1525 1524 1524 1523 1522 1522 1523 1523 1524 1525 1526 1527 1528 1530 1532 1533 1535 1537 1540 1541 1543 1545 1546 1548 1549 1550 1551 1552 1553 1553 1554 1554 1554 1554 1554 1554 1553 1553 1552 1551 1550 1549 1548
1527 1526 1525 1524 1524 1523 1523 1522 1522 1519 1519 1519 1520 1520 1521 1521 1523 1524 1526 1528 1529 1530 1532 1534 1537 1538 1540 1542 1544 1546 1547 1548 1549 1550 1551 1552 1552 1553 1553 1553 1553 1552 1552 1552 1551 1550 1549 1548 1547
1525 1524 1523 1522 1522 1521 1521 1520 1520 1515 1516 1516 1516 1517 1518 1518 1519 1521 1523 1524 1525 1527 1529 1531 1533 1535 1538 1539 1541 1543 1545 1546 1548 1549 1549 1550 1551 1551 1551 1552 1551 1551 1551 1550 1549 1549 1548 1546 1545
1523 1524 1523 1520 1519 1519 1520 1521 1516 1512 1513 1513 1513 1513 1514 1515 1516 1517 1518 1519 1521 1523 1525 1527 1530 1532 1534 1536 1539 1541 1542 1544 1545 1546 1547 1548 1549 1549 1550 1550 1550 1549 1549 1548 1548 1547 1546 1545 1544
1524 1527 1530 1520 1518 1518 1523 1523 1510 1509 1509 1509 1509 1509 1510 1510 1511 1512 1514 1516 1517 1519 1522 1524 1527 1529 1531 1533 1536 1538 1540 1541 1543 1544 1545 1546 1547 1547 1548 1548 1548 1548 1547 1547 1546 1545 1544 1543 1542
1530 1534 1530 1523 1517 1517 1520 1518 1506 1506 1506 1504 1504 1504 1504 1505 1506 1507 1509 1511 1513 1515 1518 1520 1523 1525 1527 1530 1533 1535 1537 1538 1540 1541 1542 1543 1544 1545 1545 1545 1546 1545 1545 1544 1544 1543 1542 1540 1539
1533 1531 1528 1525 1517 1517 1519 1514 1504 1502 1502 1500 1499 1499 1499 1499 1500 1502 1504 1506 1509 1511 1514 1516 1519 1521 1524 1527 1530 1532 1534 1535 1537 1538 1539 1540 1541 1542 1542 1543 1543 1543 1542 1542 1541 1540 1539 1538 1536
1524 1526 1527 1522 1515 1516 1516 1510 1501 1497 1496 1494 1493 1493 1493 1494 1496 1498 1500 1502 1505 1507 1510 1512 1514 1517 1520 1522 1524 1527 1529 1531 1533 1535 1536 1537 1538 1539 1539 1540 1540 1540 1539 1539 1538 1538 1536 1535 1533
1522 1525 1525 1520 1514 1515 1514 1508 1498 1493 1491 1489 1488 1488 1488 1489 1490 1492 1495 1497 1500 1502 1505 1507 1510 1513 1515 1517 1520 1523 1525 1527 1529 1531 1532 1533 1534 1535 1536 1536 1536 1536 1536 1536 1535 1535 1533 1532 1531
1519 1522 1522 1521 1517 1514 1515 1510 1499 1491 1488 1487 1485 1485 1484 1485 1486 1487 1490 1493 1495 1498 1500 1503 1505 1508 1511 1514 1517 1520 1522 1524 1525 1526 1527 1529 1530 1531 1532 1532 1533 1533 1533 1532 1532 1531 1530 1529 1528
1519 1514 1516 1518 1523 1527 1521 1527 1504 1494 1489 1485 1483 1482 1481 1482 1482 1484 1486 1488 1491 1494 1497 1499 1501 1504 1507 1509 1512 1514 1515 1516 1518 1521 1523 1525 1526 1527 1528 1528 1529 1529 1529 1528 1528 1527 1527 1525 1524
1511 1510 1513 1516 1521 1527 1523 1526 1508 1495 1490 1483 1480 1479 1479 1479 1480 1481 1482 1485 1487 1490 1493 1495 1497 1500 1502 1505 1507 1509 1510 1512 1515 1517 1519 1520 1521 1522 1523 1524 1524 1524 1524 1524 1524 1523 1522 1521 1520
1506 1512 1517 1523 1527 1532 1521 1526 1512 1496 1485 1480 1477 1476 1477 1477 1478 1479 1480 1482 1484 1487 1489 1491 1493 1495 1498 1500 1502 1503 1505 1508 1510 1511 1513 1515 1516 1517 1518 1519 1519 1520 1520 1520 1519 1519 1518 1517 1516
1507 1519 1531 1530 1535 1529 1515 1517 1504 1484 1477 1475 1474 1474 1474 1475 1476 1477 1478 1479 1481 1483 1485 1487 1489 1490 1493 1495 1497 1498 1500 1503 1504 1506 1508 1509 1510 1511 1512 1514 1514 1515 1515 1515 1514 1513 1513 1512 1510
1504 1511 1526 1531 1532 1524 1512 1511 1491 1476 1472 1472 1472 1473 1473 1473 1474 1475 1476 1477 1478 1479 1481 1482 1484 1486 1488 1489 1491 1493 1496 1497 1499 1501 1502 1503 1504 1506 1508 1509 1509 1509 1510 1509 1509 1508 1507 1506 1505
1502 1507 1508 1519 1521 1523 1515 1501 1485 1472 1471 1471 1471 1471 1471 1471 1472 1473 1473 1474 1475 1476 1477 1478 1480 1481 1483 1484 1486 1488 1490 1491 1493 1495 1497 1498 1499 1501 1502 1503 1503 1503 1504 1503 1503 1502 1501 1501 1499
1490 1497 1510 1516 1523 1525 1514 1503 1490 1475 1472 1470 1470 1469 1469 1469 1470 1470 1471 1472 1472 1473 1474 1475 1476 1476 1478 1479 1481 1482 1484 1486 1488 1489 1490 1492 1493 1495 1496 1496 1497 1497 1497 1497 1497 1496 1495 1494 1493
1491 1496 1499 1507 1512 1519 1517 1500 1472 1468 1466 1466 1466 1465 1465 1466 1467 1467 1468 1468 1469 1469 1470 1471 1472 1472 1473 1474 1476 1477 1478 1480 1482 1483 1484 1486 1487 1488 1489 1490 1490 1491 1491 1491 1490 1489 1489 1488 1487
1480 1484 1492 1503 1506 1507 1509 1493 1461 1461 1460 1460 1461 1462 1462 1463 1464 1464 1465 1465 1465 1465 1466 1467 1467 1468 1469 1470 1471 1472 1473 1475 1476 1477 1478 1480 1481 1482 1483 1484 1484 1484 1484 1484 1483 1483 1482 1481 1480